Location: Hilton Head Island
(32.2163°N, 80.7526°W)
Time: 19:02:58
(UTC-04:00)

Altair - Pass Details

Date: 23 February 2026
Orbit: 1502 x 1682 km, 47.2° (Epoch: 10 March)

Event Time Altitude Azimuth Distance (km) Brightness Sun altitude
Exits shadow 03:59:36 51° 358° (N) 1,833 7.8 -38.1°
Drops below altitude 10° 04:07:24 10° 48° (NE) 3,707 10.1 -36.5°
Sets 04:10:37 0° 53° (NE) 4,712 10.9 -35.8°
